Location: Plainartige
(45.6866°N, 1.7993°E)
Time: 12:52:45
(UTC+00:00)

Gurwin Techsat 1B - Pass Details

Date: 07 July 2022
Orbit: 812 x 813 km, 98.8° (Epoch: 13 August)

Event Time Altitude Azimuth Distance (km) Brightness Sun altitude
Rises 01:22:42 0° 27° (NNE) 3,345 13.5 -19.0°
Reaches altitude 10° 01:25:36 10° 42° (NE) 2,408 12.1 -18.9°
Maximum altitude 01:29:39 22° 92° (E) 1,722 10.5 -18.6°
Drops below altitude 10° 01:33:40 10° 142° (SE) 2,395 10.8 -18.3°
Enters shadow 01:33:56 - 144° (SE) 2,470 10.8 -18.3°
